Regional Weather Roundup
Issued by NWS Upton, NY

Current Version | Previous Version | Text Only | Print | Product List | Glossary On
Versions: 1 2 3 4 5 6 7 8 9 10 11 12 13 14 15 16 17 18 19 20 21 22 23 24 25 26 27 28 29 30 31 32 33 34 35 36 37 38 39 40 41 42 43 44 45 46 47 48 49 50
336 ASUS41 KOKX 171908 RWROKX REGIONAL WEATHER ROUNDUP NATIONAL WEATHER SERVICE NEW YORK NY 200 PM EST TUE JAN 17 2017 NOTE: "FAIR" INDICATES FEW OR NO CLOUDS BELOW 12,000 FEET WITH NO SIGNIFICANT WEATHER AND/OR OBSTRUCTIONS TO VISIBILITY. NYZ071-072-176-178-NJZ106-104-172000- NEW YORK CITY METRO AREA CITY SKY/WX TMP DP RH WIND PRES REMARKS Central Park CLOUDY 39 36 89 SE6 30.14F FOG WCI 35 Wall St Helipt CLOUDY 40 37 89 NE7 30.14F Bronx Bot Gard NOT AVBL LaGuardia APRT LGT RAIN 40 36 86 E7 30.13F FOG Kennedy INTL LGT RAIN 40 35 83 E6 30.14F Breezy Point NOT AVBL Newark/Liberty CLOUDY 40 36 86 NE5 30.12F FOG Teterboro LGT RAIN 40 36 86 E6 30.12F FOG $$ NYZ177-179-078>081-172000- LONG ISLAND NEW YORK CITY SKY/WX TMP DP RH WIND PRES REMARKS Jones Beach NOT AVBL Matinecock PT NOT AVBL Farmingdale LGT RAIN 38 36 92 E7 30.14F FOG WCI 33 MacArthur/ISP LGT RAIN 39 37 92 SE5 30.13F FOG Shirley LGT RAIN 40 38 93 CALM 30.15F FOG Westhampton LGT RAIN 41 33 73 SE5 30.17F Southampton NOT AVBL Bridgehampton NOT AVBL East Hampton CLOUDY 41 29 61 E5 30.15F Montauk N/A 42 25 50 VRB6 30.17F $$ NYZ052-065-067-172000- HUDSON VALLEY CITY SKY/WX TMP DP RH WIND PRES REMARKS White Plains LGT RAIN 37 34 89 E6 30.11F FOG WCI 32 Newburgh DRIZZLE 36 36 100 VRB5 30.12F FOG WCI 32 Montgomery CLOUDY 36 33 89 N6 30.11F FOG WCI 31 Poughkeepsie MIX PCPN 35 32 88 N6 30.13F FOG WCI 30 Albany LGT RAIN 34 24 67 CALM 30.14F $$ NJZ001-105-106-008-010-013-015-019>022-104-172000- NEW JERSEY CITY SKY/WX TMP DP RH WIND PRES REMARKS Newark/Liberty CLOUDY 40 36 86 NE5 30.12F FOG Teterboro LGT RAIN 40 36 86 E6 30.12F FOG Caldwell CLOUDY 38 36 92 E3 30.12F FOG Somerville LGT RAIN 39 36 89 CALM 30.10F FOG Linden CLOUDY 39 33 78 CALM 30.13F Sussex LGT RAIN 35 34 96 N3 30.11S FOG Andover N/A 36 34 92 CALM 30.09F Trenton CLOUDY 42 36 79 E6 30.09F Millville LGT RAIN 44 44 100 E6 30.08F FOG Atlantic City CLOUDY 44 40 85 SE12 30.10F Wrightstown CLOUDY 43 39 85 SE7 30.06F Toms River CLOUDY 44 39 82 SE5 30.12F Belmar CLOUDY 41 35 79 SE7 30.13F $$ PAZ047>061-062-071-172000- EASTERN PENNSYLVANIA CITY SKY/WX TMP DP RH WIND PRES REMARKS Philadelphia CLOUDY 44 40 85 SE5 30.10F FOG Allentown CLOUDY 38 33 82 E9 30.07F HAZE WCI 31 Scranton LGT RAIN 39 37 92 E5 30.00F FOG $$ CTZ002-004>006-009-010-012-RIZ004-006-007-MAZ004-011-015-172000- SOUTHERN NEW ENGLAND IN CT CITY SKY/WX TMP DP RH WIND PRES REMARKS Bradley INTL CLOUDY 39 21 48 N3 30.16F Hartford CLOUDY 40 24 53 N3 30.16F Danbury LGT RAIN 38 29 70 VRB3 30.14F Wtrbury/Oxford CLOUDY 37 25 60 SE5 30.14F WCI 34 Bridgeport LGT RAIN 40 33 76 E7 30.15F Meriden CLOUDY 41 29 62 CALM 30.16F New Haven CLOUDY 40 26 57 E8 30.15F WCI 34 Chester CLOUDY 41 23 48 SE5 30.14F Groton CLOUDY 41 26 55 E8 30.16F Wilimantic CLOUDY 44 17 33 E6 30.16F IN RI CITY SKY/WX TMP DP RH WIND PRES REMARKS Providence CLOUDY 42 18 37 E3 30.18F Block Island NOT AVBL Westerly CLOUDY 42 20 41 SE9 30.17F IN MA CITY SKY/WX TMP DP RH WIND PRES REMARKS Boston PTSUNNY 42 30 62 NE13 30.20F Worcester CLOUDY 37 15 40 E9 30.14F WCI 30 Westfield CLOUDY 38 20 48 NE5 30.15F WCI 34 Provincetown MOSUNNY 44 32 62 E7 30.20S Nantucket CLOUDY 44 30 57 NE7 30.17F $$ ANZ330-335-338-340-345-350-353-355-172000- COASTAL MARINE OBSERVATIONS STATION/POSITION TIME SKY/WX TEMP WIND PRES VSBY WAVE AIR SEA DIR/SP/G HT/PER (UTC) (F) (DEG/KT/KT) (MB) (MI) (FT/S) NY HARB ENTRANCE 1750 42 44 190/ 6/ 8 1021.1 1/ 9 20 S FIRE ISLAND 1850 42 45 120/ 4/ 6 1020.5 1/ 8 GREAT SOUTH BAY NOT AVBL 23 SSW MONTAUK P 1750 42 48 20/ 2/ 4 1022.4 2/ 4 15 E BARNEGAT LI 1830 44 N/A 1/ 9 HUDSON CANYON 1750 47 53 1021.4 2/10 KINGS POINT 1848 38 38 1020.4 EXECUTION ROCKS 1845 38 60/ 8/ 10 N/A CENTRAL LI SOUND NOT AVBL EASTERN LI SOUND NOT AVBL ROBBINS REEF 1848 39 90/ 6/ 6 1020.4 $$ >>>>>>>>>>>>>>>>>>>>>>>>>>>> KEY <<<<<<<<<<<<<<<<<<<<<<<<<<< > < > SKY/WX - Sky Condition/Present Weather < > TMP - Temperature in Fahrenheit < > DP - Dew Point in Fahrenheit < > RH - Relative Humidity in Percent < > WIND - Direction (from) and Speed in MPH < > PRES - Mean Sea Level Pressure (inches of Hg) < > WCI - Wind Chill Index < > VSB - VISIBILITY IN MILES < > HX - HEAT INDEX < > TC - TEMPERATURE IN CELSIUS < > VRB - VARIABLE WIND DIRECTION < > < >>>>>>>>>>>>>>>>>>>>>>>>>>>> KEY <<<<<<<<<<<<<<<<<<<<<<<<<<<

USA.gov is the U.S. government's official web portal to all federal, state and local government web resources and services.